Location: Izdebno
(52.6670°N, 16.2170°E)
Time: 19:43:23
(UTC+02:00)

SR - Pass Details

Date: 05 March 2024
Orbit: 577 x 862 km, 66.7° (Epoch: 20 April)

Event Time Altitude Azimuth Distance (km) Brightness Sun altitude
Rises 21:58:25 0° 316° (NW) 3,201 ? -36.1°
Reaches altitude 10° 22:01:04 10° 307° (NW) 2,222 ? -36.4°
Enters shadow 22:03:00 20° 293° (WNW) 1,596 ? -36.6°
